This is the latest recevied weather packets stored in our database for station/object SP1BMW-13. If no packets are shown the sender has not sent any weather packets the latest 10 day(s).
| Time | Temp. | Humidity | Pressure | Rain* | Wind** | Luminosity | Snow |
|---|---|---|---|---|---|---|---|
| 1787932037 | 23.33° C | 61% | 1008.1 hPa | 0 mm | 1.79 m/s, 36° | 87 W/m² | - |
| 1787931977 | 23.33° C | 61% | 1008.1 hPa | 0 mm | 0.89 m/s, 358° | 85 W/m² | - |
| 1787931918 | 23.33° C | 61% | 1008.1 hPa | 0 mm | 1.34 m/s, 29° | 84 W/m² | - |
| 1787931857 | 23.33° C | 61% | 1008.2 hPa | 0 mm | 1.79 m/s, 43° | 85 W/m² | - |
| 1787931797 | 23.33° C | 61% | 1008.1 hPa | 0 mm | 0.45 m/s, 35° | 91 W/m² | - |
| 1787931737 | 23.33° C | 61% | 1008.3 hPa | 0 mm | 1.79 m/s, 46° | 98 W/m² | - |
| 1787931677 | 23.33° C | 61% | 1008.3 hPa | 0 mm | 1.34 m/s, 61° | 105 W/m² | - |
| 1787931617 | 23.33° C | 61% | 1008.3 hPa | 0 mm | 0 m/s | 109 W/m² | - |
| 1787931557 | 23.33° C | 61% | 1008.4 hPa | 0 mm | 0.45 m/s, 64° | 110 W/m² | - |
| 1787931497 | 23.33° C | 61% | 1008.3 hPa | 0 mm | 0.89 m/s, 268° | 110 W/m² | - |
| 1787931437 | 23.33° C | 61% | 1008.3 hPa | 0 mm | 0.45 m/s, 74° | 107 W/m² | - |
| 1787931378 | 23.33° C | 61% | 1008.2 hPa | 0 mm | 0.89 m/s, 159° | 104 W/m² | - |
| 1787931317 | 23.33° C | 60% | 1008.4 hPa | 0 mm | 1.34 m/s, 55° | 100 W/m² | - |
| 1787931257 | 23.89° C | 60% | 1008.3 hPa | 0 mm | 0.45 m/s, 352° | 96 W/m² | - |
| 1787931197 | 23.89° C | 60% | 1008.4 hPa | 0 mm | 0.89 m/s, 350° | 93 W/m² | - |
| 1787931137 | 23.89° C | 60% | 1008.3 hPa | 0 mm | 0.89 m/s, 46° | 92 W/m² | - |
| 1787931077 | 23.89° C | 60% | 1008.5 hPa | 0 mm | 0.89 m/s, 41° | 91 W/m² | - |
| 1787931018 | 23.89° C | 61% | 1008.4 hPa | 0 mm | 0 m/s | 90 W/m² | - |
| 1787930958 | 23.89° C | 60% | 1008.4 hPa | 0 mm | 0 m/s | 89 W/m² | - |
| 1787930899 | 23.89° C | 59% | 1008.5 hPa | 0 mm | 0.45 m/s, 350° | 89 W/m² | - |
| 1787930838 | 23.89° C | 59% | 1008.5 hPa | 0 mm | 0.89 m/s, 99° | 89 W/m² | - |
| 1787930778 | 23.89° C | 60% | 1008.6 hPa | 0 mm | 0.45 m/s, 144° | 87 W/m² | - |
| 1787930718 | 23.89° C | 60% | 1008.7 hPa | 0 mm | 0.89 m/s, 55° | 86 W/m² | - |
| 1787930658 | 23.89° C | 59% | 1008.6 hPa | 0 mm | 1.34 m/s, 6° | 86 W/m² | - |
| 1787930598 | 23.89° C | 59% | 1008.9 hPa | 0 mm | 0.45 m/s, 45° | 85 W/m² | - |
* Rain latest hour (hover to see other rain measurements)
** Current wind speed in m/s (hover to see current wind gust speed)